Weather in Ust-Dolyssy

Russia / Pskov Oblast     56°08′05″N   29°39′02″E
temp.,
°C
wind,
m/s
gust,
m/s
humid.,
%
clouds,
%
prec.,
mm/h
press.,
hPa
HPBL,
m
12 april, mon
mon1200:00+7sse312895 0.0 1027217
03:00+6sse3118817 0.0 1028186
06:00+5sse311858 0.0 1028191
09:00+9sse412705 0.0 1027400
12:00+14sse59490 0.0 10261161
15:00+16sse58390 0.0 10241515
18:00+14se4845100 0.0 10221110
21:00+10sse41063100 0.0 1022378
13 april, tue
tue1300:00+8sse31086100 0.0 1022389
03:00+8sse2795100 0.1 1021316
06:00+6sse2498100 0.0 102179
09:00+10s2384100 0.0 1021235
12:00+15sse235582 0.0 1020904
15:00+17s2347100 0.0 10191597
18:00+11se3690100 0.6 1019193
21:00+10se2495100 1.3 1018147
14 april, wed
wed1400:00+10nne2398100 2.6 1017148
03:00+10e1597100 3.7 1015419
06:00+8nnw3597100 2.0 1015259
09:00+6n3696100 4.6 1016329
12:00+5n2394100 0.9 1017311
15:00+6n3388100 0.9 1018388
18:00+5n3488100 0.0 1018389
21:00+4nne379497 0.0 1020307
15 april, thu
thu1500:00+3nne389578 0.0 1019296
03:00+3nne4109696 0.0 1019354
06:00+3nne51294100 0.0 1019393
09:00+3nne51294100 0.7 1019401
12:00+4nne51195100 0.8 1019378
15:00+4nne51196100 0.8 1019414
18:00+4nne51296100 0.0 1019417
21:00+5nne51297100 0.1 1019457
16 april, fri
fri1600:00+5ne51297100 0.1 1019439
03:00+5ne51298100 1.6 1019372
06:00+5ne51496100 0.0 1020576
09:00+6ne61494100 1.4 1021541
12:00+7ne61389100 0.2 1021723
15:00+10ne6128199 0.3 1021995
18:00+9ne61384100 0.9 1022870
21:00+9ne61477100 0.9 1023908